Вернуться в каталог

CRRES DEB

CANISTER

АктивенHEO
NORAD 29530·DEBRIS·🇺🇸 United States

Запущен Jul 25, 1990 с Cape Canaveral Space Force Station

Loading…

Ближайшие Пролёты (ближайшие 24 часа)

TLE

СвежийSource: Space-Track

Эпоха: Sep 13, 2026, 00:15 UTC

1 29530U 90065X   26256.01108715  .00001815  00000-0  18475-2 0  9995
2 29530  18.0927  25.2306 7074972 127.2705 320.4140  2.50079982121343

Отслеживайте CRRES DEB в реальном времени с AllMySat

Download on the App Store